sat.trackr.live / text

‹ back to catalog

SMDC ONE 2.3

NORAD 39474 · 2013-072N

PAYLOAD ACTIVE UNKNOWN

§ Identity

Operator
Country
US
Launch date
2013-12-06
Launch site
AFWTR
Launch vehicle
Mass (kg)
RCS (m²)

External: N2YO · Heavens-Above · Gunter

§ Orbital elements

Epoch: 2026-05-25T04:04:28.205760Z

Period
92.35 min
Inclination
120.4513°
Eccentricity
0.0070168
Mean motion
15.59289135 rev/d
Perigee alt
342.2 km
Apogee alt
437.2 km
Semi-major
6,767.9 km
B*
1.0590e-3
RAAN
42.8509°
Arg perigee
28.1281°
Mean anomaly
332.3577°
Rev number
11,398

§ Raw data

SMDC ONE 2.31 39474U 13072N   26145.16977090  .00095662  00000+0  10590-2 0  99912 39474 120.4513  42.8509 0070168  28.1281 332.3577 15.59289135113987

JSON: /api/v1/satellites/39474 · /tle

For live sub-satellite position, see the globe view (requires WebGL).

§ Visibility from observer

Set your observer location to see the next 7 days of passes ≥ 10°. The values pass through the URL so the page stays shareable.

No JS? Fill the form by hand. The geolocation button needs JavaScript.